Time,TemperatureF,DewpointF,PressureIn,WindDirection,WindDirectionDegrees,WindSpeedMPH,WindSpeedGustMPH,Humidity,HourlyPrecipIn,Conditions,Clouds,dailyrainin,SoftwareType,DateUTC
2013-09-19 00:00:00,63.8,0.0,29.86,WSW,256,2.0,6.0,0,0.00,,,0.00,Weather View 32 v70,2013-09-19 07:00:00,
2013-09-19 00:10:00,63.0,0.0,29.86,West,262,4.0,8.0,0,0.00,,,0.00,Weather View 32 v70,2013-09-19 07:10:00,
2013-09-19 00:20:00,62.1,0.0,29.86,WSW,240,4.0,8.0,0,0.00,,,0.00,Weather View 32 v70,2013-09-19 07:20:00,
2013-09-19 00:30:00,62.1,0.0,29.86,SW,233,0.0,8.0,0,0.00,,,0.00,Weather View 32 v70,2013-09-19 07:30:00,
2013-09-19 00:40:00,62.7,0.0,29.86,West,276,0.0,8.0,0,0.00,,,0.00,Weather View 32 v70,2013-09-19 07:40:00,
2013-09-19 00:50:00,63.0,0.0,29.86,SW,225,0.0,8.0,0,0.00,,,0.00,Weather View 32 v70,2013-09-19 07:50:00,
2013-09-19 01:00:00,62.8,0.0,29.86,WSW,243,0.0,8.0,0,0.00,,,0.00,Weather View 32 v70,2013-09-19 08:00:00,
2013-09-19 01:10:00,62.5,0.0,29.86,SW,228,3.0,8.0,0,0.00,,,0.00,Weather View 32 v70,2013-09-19 08:10:00,
2013-09-19 01:20:00,63.1,0.0,29.86,WSW,242,1.0,8.0,0,0.00,,,0.00,Weather View 32 v70,2013-09-19 08:20:00,
2013-09-19 01:40:00,62.3,0.0,29.86,WNW,291,2.0,5.0,0,0.00,,,0.00,Weather View 32 v70,2013-09-19 08:40:00,
2013-09-19 01:50:00,62.5,0.0,29.86,WSW,252,0.0,6.0,0,0.00,,,0.00,Weather View 32 v70,2013-09-19 08:50:00,
2013-09-19 02:00:00,62.7,0.0,29.86,West,263,4.0,6.0,0,0.00,,,0.00,Weather View 32 v70,2013-09-19 09:00:00,
2013-09-19 02:10:00,63.2,0.0,29.86,WNW,285,3.0,6.0,0,0.00,,,0.00,Weather View 32 v70,2013-09-19 09:10:00,
2013-09-19 02:20:00,62.9,0.0,29.86,WSW,249,4.0,6.0,0,0.00,,,0.00,Weather View 32 v70,2013-09-19 09:20:00,
2013-09-19 02:30:00,62.9,0.0,29.85,West,262,3.0,7.0,0,0.00,,,0.00,Weather View 32 v70,2013-09-19 09:30:00,
2013-09-19 02:40:00,62.6,0.0,29.85,West,276,3.0,7.0,0,0.00,,,0.00,Weather View 32 v70,2013-09-19 09:40:00,
2013-09-19 02:50:00,62.3,0.0,29.85,WSW,257,3.0,7.0,0,0.00,,,0.00,Weather View 32 v70,2013-09-19 09:50:00,
2013-09-19 03:00:00,62.5,0.0,29.85,WSW,250,2.0,7.0,0,0.00,,,0.00,Weather View 32 v70,2013-09-19 10:00:00,
2013-09-19 03:10:00,61.9,0.0,29.85,West,276,3.0,7.0,0,0.00,,,0.00,Weather View 32 v70,2013-09-19 10:10:00,
2013-09-19 03:20:00,61.2,0.0,29.85,West,269,4.0,7.0,0,0.00,,,0.00,Weather View 32 v70,2013-09-19 10:20:00,
2013-09-19 03:30:00,61.1,0.0,29.85,West,270,4.0,7.0,0,0.00,,,0.00,Weather View 32 v70,2013-09-19 10:30:00,
2013-09-19 03:40:00,60.9,0.0,29.85,NW,305,1.0,7.0,0,0.00,,,0.00,Weather View 32 v70,2013-09-19 10:40:00,
2013-09-19 03:50:00,60.9,0.0,29.85,WSW,253,3.0,7.0,0,0.00,,,0.00,Weather View 32 v70,2013-09-19 10:50:00,
2013-09-19 04:00:00,61.4,0.0,29.84,West,281,3.0,7.0,0,0.00,,,0.00,Weather View 32 v70,2013-09-19 11:00:00,
2013-09-19 04:10:00,61.0,0.0,29.84,West,271,5.0,7.0,0,0.00,,,0.00,Weather View 32 v70,2013-09-19 11:10:00,
2013-09-19 04:20:00,60.8,0.0,29.84,West,271,4.0,7.0,0,0.00,,,0.00,Weather View 32 v70,2013-09-19 11:20:00,
2013-09-19 04:30:00,61.1,0.0,29.84,West,278,4.0,6.0,0,0.00,,,0.00,Weather View 32 v70,2013-09-19 11:30:00,
2013-09-19 04:35:00,61.1,0.0,29.84,West,278,4.0,6.0,0,0.00,,,0.00,Weather View 32 v70,2013-09-19 11:35:00,
2013-09-19 04:50:00,60.9,0.0,29.84,West,262,0.0,7.0,0,0.00,,,0.00,Weather View 32 v70,2013-09-19 11:50:00,
2013-09-19 05:00:00,60.3,0.0,29.85,SSW,194,0.0,7.0,0,0.00,,,0.00,Weather View 32 v70,2013-09-19 12:00:00,
2013-09-19 05:10:00,60.1,0.0,29.85,West,266,3.0,7.0,0,0.00,,,0.00,Weather View 32 v70,2013-09-19 12:10:00,
2013-09-19 05:20:00,60.3,0.0,29.85,WSW,246,0.0,7.0,0,0.00,,,0.00,Weather View 32 v70,2013-09-19 12:20:00,
2013-09-19 05:30:00,60.4,0.0,29.85,WNW,290,0.0,7.0,0,0.00,,,0.00,Weather View 32 v70,2013-09-19 12:30:00,
2013-09-19 05:35:00,60.4,0.0,29.85,WNW,290,0.0,7.0,0,0.00,,,0.00,Weather View 32 v70,2013-09-19 12:35:00,
2013-09-19 05:50:00,59.3,0.0,29.85,WNW,290,0.0,4.0,0,0.00,,,0.00,Weather View 32 v70,2013-09-19 12:50:00,
2013-09-19 06:00:00,57.7,0.0,29.86,WNW,290,0.0,4.0,0,0.00,,,0.00,Weather View 32 v70,2013-09-19 13:00:00,
2013-09-19 06:10:00,58.9,0.0,29.87,WNW,290,0.0,4.0,0,0.00,,,0.00,Weather View 32 v70,2013-09-19 13:10:00,
2013-09-19 06:20:00,59.0,0.0,29.87,WNW,290,0.0,3.0,0,0.00,,,0.00,Weather View 32 v70,2013-09-19 13:20:00,
2013-09-19 06:30:00,59.0,0.0,29.87,WNW,290,0.0,1.0,0,0.00,,,0.00,Weather View 32 v70,2013-09-19 13:30:00,
2013-09-19 06:36:00,59.0,0.0,29.87,WNW,290,0.0,1.0,0,0.00,,,0.00,Weather View 32 v70,2013-09-19 13:36:00,
2013-09-19 06:50:00,56.0,0.0,29.87,WNW,290,0.0,0.0,0,0.00,,,0.00,Weather View 32 v70,2013-09-19 13:50:00,
2013-09-19 07:00:00,56.2,0.0,29.87,WNW,290,0.0,0.0,0,0.00,,,0.00,Weather View 32 v70,2013-09-19 14:00:00,
2013-09-19 07:10:00,55.8,0.0,29.88,WNW,290,0.0,0.0,0,0.00,,,0.00,Weather View 32 v70,2013-09-19 14:10:00,
2013-09-19 07:20:00,56.8,0.0,29.88,WNW,291,0.0,1.0,0,0.00,,,0.00,Weather View 32 v70,2013-09-19 14:20:00,
2013-09-19 07:30:00,56.7,0.0,29.88,WNW,291,0.0,1.0,0,0.00,,,0.00,Weather View 32 v70,2013-09-19 14:30:00,
2013-09-19 07:37:00,56.7,0.0,29.88,WNW,291,0.0,1.0,0,0.00,,,0.00,Weather View 32 v70,2013-09-19 14:37:00,
2013-09-19 07:50:00,58.5,0.0,29.88,WNW,291,0.0,1.0,0,0.00,,,0.00,Weather View 32 v70,2013-09-19 14:50:00,
2013-09-19 08:00:00,59.4,0.0,29.88,WNW,291,0.0,1.0,0,0.00,,,0.00,Weather View 32 v70,2013-09-19 15:00:00,
2013-09-19 08:10:00,60.5,0.0,29.88,WNW,291,0.0,1.0,0,0.00,,,0.00,Weather View 32 v70,2013-09-19 15:10:00,
2013-09-19 08:20:00,62.5,0.0,29.88,WNW,291,0.0,1.0,0,0.00,,,0.00,Weather View 32 v70,2013-09-19 15:20:00,
2013-09-19 08:30:00,63.7,0.0,29.88,West,277,3.0,5.0,0,0.00,,,0.00,Weather View 32 v70,2013-09-19 15:30:00,
2013-09-19 08:37:00,63.7,0.0,29.88,West,277,3.0,5.0,0,0.00,,,0.00,Weather View 32 v70,2013-09-19 15:37:00,
2013-09-19 08:50:00,67.2,0.0,29.88,SSE,156,0.0,5.0,0,0.00,,,0.00,Weather View 32 v70,2013-09-19 15:50:00,
2013-09-19 09:00:00,68.7,0.0,29.89,SSW,211,3.0,5.0,0,0.00,,,0.00,Weather View 32 v70,2013-09-19 16:00:00,
2013-09-19 09:10:00,70.4,0.0,29.89,South,170,0.0,5.0,0,0.00,,,0.00,Weather View 32 v70,2013-09-19 16:10:00,
2013-09-19 09:20:00,72.2,0.0,29.89,SSE,162,2.0,5.0,0,0.00,,,0.00,Weather View 32 v70,2013-09-19 16:20:00,
2013-09-19 09:30:00,72.9,0.0,29.89,ESE,113,2.0,5.0,0,0.00,,,0.00,Weather View 32 v70,2013-09-19 16:30:00,
2013-09-19 09:38:00,72.9,0.0,29.89,ESE,113,2.0,5.0,0,0.00,,,0.00,Weather View 32 v70,2013-09-19 16:38:00,
2013-09-19 09:50:00,74.2,0.0,29.89,SE,136,3.0,5.0,0,0.00,,,0.00,Weather View 32 v70,2013-09-19 16:50:00,
2013-09-19 10:00:00,76.4,0.0,29.89,SE,146,0.0,5.0,0,0.00,,,0.00,Weather View 32 v70,2013-09-19 17:00:00,
2013-09-19 10:10:00,76.8,0.0,29.89,SE,134,0.0,5.0,0,0.00,,,0.00,Weather View 32 v70,2013-09-19 17:10:00,
2013-09-19 10:20:00,78.1,0.0,29.89,SW,232,2.0,5.0,0,0.00,,,0.00,Weather View 32 v70,2013-09-19 17:20:00,
2013-09-19 10:38:00,77.8,0.0,29.89,SSE,150,0.0,5.0,0,0.00,,,0.00,Weather View 32 v70,2013-09-19 17:38:00,
2013-09-19 10:50:00,80.8,0.0,29.88,ESE,115,3.0,6.0,0,0.00,,,0.00,Weather View 32 v70,2013-09-19 17:50:00,
2013-09-19 11:00:00,82.4,0.0,29.88,SE,145,4.0,6.0,0,0.00,,,0.00,Weather View 32 v70,2013-09-19 18:00:00,
2013-09-19 11:10:00,81.3,0.0,29.88,South,176,0.0,7.0,0,0.00,,,0.00,Weather View 32 v70,2013-09-19 18:10:00,
2013-09-19 11:20:00,81.9,0.0,29.88,SE,127,0.0,7.0,0,0.00,,,0.00,Weather View 32 v70,2013-09-19 18:20:00,
2013-09-19 11:30:00,83.8,0.0,29.88,South,184,0.0,7.0,0,0.00,,,0.00,Weather View 32 v70,2013-09-19 18:30:00,
2013-09-19 11:39:00,83.8,0.0,29.88,South,184,0.0,7.0,0,0.00,,,0.00,Weather View 32 v70,2013-09-19 18:39:00,
2013-09-19 11:50:00,85.9,0.0,29.88,SSW,207,0.0,7.0,0,0.00,,,0.00,Weather View 32 v70,2013-09-19 18:50:00,
2013-09-19 12:00:00,87.1,0.0,29.87,SW,224,2.0,7.0,0,0.00,,,0.00,Weather View 32 v70,2013-09-19 19:00:00,
2013-09-19 12:10:00,86.9,0.0,29.87,East,90,0.0,7.0,0,0.00,,,0.00,Weather View 32 v70,2013-09-19 19:10:00,
2013-09-19 12:20:00,88.4,0.0,29.86,West,264,1.0,7.0,0,0.00,,,0.00,Weather View 32 v70,2013-09-19 19:20:00,
2013-09-19 12:30:00,88.9,0.0,29.86,SSW,200,3.0,7.0,0,0.00,,,0.00,Weather View 32 v70,2013-09-19 19:30:00,
2013-09-19 12:40:00,90.1,0.0,29.86,ESE,107,4.0,7.0,0,0.00,,,0.00,Weather View 32 v70,2013-09-19 19:40:00,
2013-09-19 12:50:00,90.2,0.0,29.85,SSW,208,4.0,7.0,0,0.00,,,0.00,Weather View 32 v70,2013-09-19 19:50:00,
2013-09-19 13:00:00,89.0,0.0,29.85,SW,215,1.0,7.0,0,0.00,,,0.00,Weather View 32 v70,2013-09-19 20:00:00,
2013-09-19 13:10:00,89.8,0.0,29.85,WSW,256,2.0,7.0,0,0.00,,,0.00,Weather View 32 v70,2013-09-19 20:10:00,
2013-09-19 13:20:00,90.8,0.0,29.84,West,276,2.0,7.0,0,0.00,,,0.00,Weather View 32 v70,2013-09-19 20:20:00,
2013-09-19 13:30:00,91.0,0.0,29.84,SE,136,2.0,8.0,0,0.00,,,0.00,Weather View 32 v70,2013-09-19 20:30:00,
2013-09-19 13:40:00,92.0,0.0,29.83,SSW,211,5.0,8.0,0,0.00,,,0.00,Weather View 32 v70,2013-09-19 20:40:00,
2013-09-19 13:50:00,93.2,0.0,29.83,SE,128,0.0,8.0,0,0.00,,,0.00,Weather View 32 v70,2013-09-19 20:50:00,
2013-09-19 14:00:00,92.5,0.0,29.82,South,186,5.0,8.0,0,0.00,,,0.00,Weather View 32 v70,2013-09-19 21:00:00,
2013-09-19 14:10:00,91.8,0.0,29.82,SSW,194,4.0,8.0,0,0.00,,,0.00,Weather View 32 v70,2013-09-19 21:10:00,
2013-09-19 14:20:00,92.8,0.0,29.81,SSW,195,4.0,8.0,0,0.00,,,0.00,Weather View 32 v70,2013-09-19 21:20:00,
2013-09-19 14:30:00,92.2,0.0,29.81,SSW,197,0.0,7.0,0,0.00,,,0.00,Weather View 32 v70,2013-09-19 21:30:00,
2013-09-19 14:40:00,93.8,0.0,29.80,ESE,122,4.0,7.0,0,0.00,,,0.00,Weather View 32 v70,2013-09-19 21:40:00,
2013-09-19 14:50:00,93.8,0.0,29.80,SSE,166,2.0,10.0,0,0.00,,,0.00,Weather View 32 v70,2013-09-19 21:50:00,
2013-09-19 15:00:00,93.4,0.0,29.80,East,98,7.0,10.0,0,0.00,,,0.00,Weather View 32 v70,2013-09-19 22:00:00,
2013-09-19 15:10:00,92.7,0.0,29.80,SE,131,4.0,10.0,0,0.00,,,0.00,Weather View 32 v70,2013-09-19 22:10:00,
2013-09-19 15:20:00,92.8,0.0,29.79,SW,228,3.0,10.0,0,0.00,,,0.00,Weather View 32 v70,2013-09-19 22:20:00,
2013-09-19 15:30:00,93.4,0.0,29.79,SSW,195,2.0,10.0,0,0.00,,,0.00,Weather View 32 v70,2013-09-19 22:30:00,
2013-09-19 15:40:00,93.0,0.0,29.78,SW,214,3.0,10.0,0,0.00,,,0.00,Weather View 32 v70,2013-09-19 22:40:00,
2013-09-19 15:50:00,92.6,0.0,29.78,East,98,2.0,9.0,0,0.00,,,0.00,Weather View 32 v70,2013-09-19 22:50:00,
2013-09-19 16:00:00,92.1,0.0,29.78,SSW,207,2.0,9.0,0,0.00,,,0.00,Weather View 32 v70,2013-09-19 23:00:00,
2013-09-19 16:10:00,92.1,0.0,29.77,SSW,200,2.0,9.0,0,0.00,,,0.00,Weather View 32 v70,2013-09-19 23:10:00,
2013-09-19 16:20:00,91.9,0.0,29.77,WSW,242,3.0,9.0,0,0.00,,,0.00,Weather View 32 v70,2013-09-19 23:20:00,
2013-09-19 16:30:00,91.6,0.0,29.77,East,86,0.0,8.0,0,0.00,,,0.00,Weather View 32 v70,2013-09-19 23:30:00,
2013-09-19 16:40:00,91.2,0.0,29.76,SW,231,0.0,8.0,0,0.00,,,0.00,Weather View 32 v70,2013-09-19 23:40:00,
2013-09-19 16:50:00,90.4,0.0,29.76,SSE,162,1.0,8.0,0,0.00,,,0.00,Weather View 32 v70,2013-09-19 23:50:00,
2013-09-19 17:00:00,90.4,0.0,29.76,SW,235,2.0,8.0,0,0.00,,,0.00,Weather View 32 v70,2013-09-20 00:00:00,
2013-09-19 17:10:00,90.4,0.0,29.76,SW,226,11.0,13.0,0,0.00,,,0.00,Weather View 32 v70,2013-09-20 00:10:00,
2013-09-19 17:20:00,89.3,0.0,29.75,SSW,205,8.0,13.0,0,0.00,,,0.00,Weather View 32 v70,2013-09-20 00:20:00,
2013-09-19 17:30:00,89.3,0.0,29.75,SSW,208,7.0,13.0,0,0.00,,,0.00,Weather View 32 v70,2013-09-20 00:30:00,
2013-09-19 17:40:00,87.3,0.0,29.75,SSW,204,4.0,13.0,0,0.00,,,0.00,Weather View 32 v70,2013-09-20 00:40:00,
2013-09-19 17:50:00,86.9,0.0,29.75,SW,224,5.0,13.0,0,0.00,,,0.00,Weather View 32 v70,2013-09-20 00:50:00,
2013-09-19 18:00:00,86.1,0.0,29.75,South,188,2.0,13.0,0,0.00,,,0.00,Weather View 32 v70,2013-09-20 01:00:00,
2013-09-19 18:10:00,86.0,0.0,29.74,WSW,257,5.0,13.0,0,0.00,,,0.00,Weather View 32 v70,2013-09-20 01:10:00,
2013-09-19 18:20:00,84.9,0.0,29.74,WSW,240,5.0,12.0,0,0.00,,,0.00,Weather View 32 v70,2013-09-20 01:20:00,
2013-09-19 18:30:00,84.3,0.0,29.74,SSW,198,1.0,11.0,0,0.00,,,0.00,Weather View 32 v70,2013-09-20 01:30:00,
2013-09-19 18:40:00,83.5,0.0,29.74,SW,233,2.0,11.0,0,0.00,,,0.00,Weather View 32 v70,2013-09-20 01:40:00,
2013-09-19 18:50:00,83.1,0.0,29.74,WSW,240,4.0,9.0,0,0.00,,,0.00,Weather View 32 v70,2013-09-20 01:50:00,
2013-09-19 19:00:00,82.2,0.0,29.73,WSW,257,3.0,9.0,0,0.00,,,0.00,Weather View 32 v70,2013-09-20 02:00:00,
2013-09-19 19:10:00,81.4,0.0,29.73,SSW,201,1.0,8.0,0,0.00,,,0.00,Weather View 32 v70,2013-09-20 02:10:00,
2013-09-19 19:20:00,80.5,0.0,29.73,West,267,2.0,7.0,0,0.00,,,0.00,Weather View 32 v70,2013-09-20 02:20:00,
2013-09-19 19:30:00,80.0,0.0,29.73,SW,235,0.0,6.0,0,0.00,,,0.00,Weather View 32 v70,2013-09-20 02:30:00,
2013-09-19 19:40:00,79.9,0.0,29.73,WSW,257,1.0,7.0,0,0.00,,,0.00,Weather View 32 v70,2013-09-20 02:40:00,
2013-09-19 19:50:00,79.3,0.0,29.73,West,280,5.0,9.0,0,0.00,,,0.00,Weather View 32 v70,2013-09-20 02:50:00,
2013-09-19 20:00:00,78.4,0.0,29.74,West,262,2.0,9.0,0,0.00,,,0.00,Weather View 32 v70,2013-09-20 03:00:00,
2013-09-19 20:10:00,77.7,0.0,29.75,WNW,298,3.0,9.0,0,0.00,,,0.00,Weather View 32 v70,2013-09-20 03:10:00,
2013-09-19 20:20:00,77.3,0.0,29.75,WSW,256,2.0,9.0,0,0.00,,,0.00,Weather View 32 v70,2013-09-20 03:20:00,
2013-09-19 20:30:00,77.1,0.0,29.75,SW,229,2.0,9.0,0,0.00,,,0.00,Weather View 32 v70,2013-09-20 03:30:00,
2013-09-19 20:40:00,76.1,0.0,29.75,West,277,0.0,9.0,0,0.00,,,0.00,Weather View 32 v70,2013-09-20 03:40:00,
2013-09-19 20:50:00,75.2,0.0,29.76,SSW,203,0.0,9.0,0,0.00,,,0.00,Weather View 32 v70,2013-09-20 03:50:00,
2013-09-19 21:00:00,74.3,0.0,29.76,West,270,0.0,9.0,0,0.00,,,0.00,Weather View 32 v70,2013-09-20 04:00:00,
2013-09-19 21:10:00,73.3,0.0,29.76,West,270,0.0,9.0,0,0.00,,,0.00,Weather View 32 v70,2013-09-20 04:10:00,
2013-09-19 21:20:00,72.6,0.0,29.76,West,270,0.0,9.0,0,0.00,,,0.00,Weather View 32 v70,2013-09-20 04:20:00,
2013-09-19 21:30:00,71.5,0.0,29.76,West,270,0.0,6.0,0,0.00,,,0.00,Weather View 32 v70,2013-09-20 04:30:00,
2013-09-19 21:40:00,71.2,0.0,29.76,West,270,0.0,3.0,0,0.00,,,0.00,Weather View 32 v70,2013-09-20 04:40:00,
2013-09-19 21:45:00,71.2,0.0,29.76,West,270,0.0,3.0,0,0.00,,,0.00,Weather View 32 v70,2013-09-20 04:45:00,
2013-09-19 22:00:00,70.2,0.0,29.77,West,270,0.0,1.0,0,0.00,,,0.00,Weather View 32 v70,2013-09-20 05:00:00,
2013-09-19 22:10:00,69.7,0.0,29.77,West,270,0.0,1.0,0,0.00,,,0.00,Weather View 32 v70,2013-09-20 05:10:00,
2013-09-19 22:20:00,68.7,0.0,29.77,West,270,0.0,1.0,0,0.00,,,0.00,Weather View 32 v70,2013-09-20 05:20:00,
2013-09-19 22:30:00,68.0,0.0,29.77,West,270,0.0,1.0,0,0.00,,,0.00,Weather View 32 v70,2013-09-20 05:30:00,
2013-09-19 22:40:00,67.9,0.0,29.78,WSW,245,0.0,4.0,0,0.00,,,0.00,Weather View 32 v70,2013-09-20 05:40:00,
2013-09-19 22:45:00,67.9,0.0,29.78,WSW,245,0.0,4.0,0,0.00,,,0.00,Weather View 32 v70,2013-09-20 05:45:00,
2013-09-19 22:50:00,67.3,0.0,29.78,SW,226,0.0,4.0,0,0.00,,,0.00,Weather View 32 v70,2013-09-20 05:50:00,
2013-09-19 23:00:00,67.1,0.0,29.79,WNW,293,0.0,4.0,0,0.00,,,0.00,Weather View 32 v70,2013-09-20 06:00:00,
2013-09-19 23:10:00,66.7,0.0,29.79,SW,236,0.0,4.0,0,0.00,,,0.00,Weather View 32 v70,2013-09-20 06:10:00,
2013-09-19 23:20:00,66.2,0.0,29.79,SW,221,0.0,4.0,0,0.00,,,0.00,Weather View 32 v70,2013-09-20 06:20:00,
2013-09-19 23:30:00,65.6,0.0,29.79,SW,221,0.0,4.0,0,0.00,,,0.00,Weather View 32 v70,2013-09-20 06:30:00,
2013-09-19 23:40:00,65.6,0.0,29.79,SW,221,0.0,3.0,0,0.00,,,0.00,Weather View 32 v70,2013-09-20 06:40:00,
2013-09-19 23:46:00,65.6,0.0,29.79,SW,221,0.0,3.0,0,0.00,,,0.00,Weather View 32 v70,2013-09-20 06:46:00,